TimeEST,TemperatureF,Dew PointF,Humidity,Sea Level PressureIn,VisibilityMPH,Wind Direction,Wind SpeedMPH,Gust SpeedMPH,PrecipitationIn,Events,Conditions,WindDirDegrees,DateUTC
1:52 AM,1.9,-2.9,80,30.33,10.0,Calm,Calm,-,N/A,,Clear,0,2012-12-26 06:52:00
2:52 AM,-0.0,-5.1,79,30.35,10.0,Calm,Calm,-,N/A,,Clear,0,2012-12-26 07:52:00
3:52 AM,-0.0,-5.1,79,30.37,10.0,Calm,Calm,-,N/A,,Clear,0,2012-12-26 08:52:00
4:52 AM,-2.9,-8.0,79,30.38,10.0,Calm,Calm,-,N/A,,Clear,0,2012-12-26 09:52:00
5:52 AM,-0.9,-8.0,72,30.38,9.0,Calm,Calm,-,N/A,,Clear,0,2012-12-26 10:52:00
6:52 AM,-4.0,-9.0,79,30.37,10.0,Calm,Calm,-,N/A,,Clear,0,2012-12-26 11:52:00
7:52 AM,-6.0,-11.0,79,30.40,10.0,Calm,Calm,-,N/A,,Clear,0,2012-12-26 12:52:00
8:52 AM,3.9,-2.0,76,30.39,9.0,Calm,Calm,-,N/A,,Clear,0,2012-12-26 13:52:00
9:52 AM,10.0,5.0,80,30.39,10.0,Calm,Calm,-,N/A,,Clear,0,2012-12-26 14:52:00
10:52 AM,16.0,9.0,74,30.35,10.0,Calm,Calm,-,N/A,,Clear,0,2012-12-26 15:52:00
11:52 AM,21.0,9.0,60,30.32,10.0,Calm,Calm,-,N/A,,Clear,0,2012-12-26 16:52:00
12:52 PM,25.0,9.0,51,30.28,10.0,Calm,Calm,-,N/A,,Clear,0,2012-12-26 17:52:00
1:52 PM,25.0,10.0,53,30.27,10.0,Calm,Calm,-,N/A,,Clear,0,2012-12-26 18:52:00
2:52 PM,26.1,10.0,51,30.28,10.0,Calm,Calm,-,N/A,,Clear,0,2012-12-26 19:52:00
3:52 PM,25.0,10.9,55,30.27,10.0,Calm,Calm,-,N/A,,Clear,0,2012-12-26 20:52:00
4:52 PM,18.0,12.0,78,30.27,10.0,Calm,Calm,-,N/A,,Clear,0,2012-12-26 21:52:00
5:52 PM,15.1,10.0,80,30.28,10.0,Calm,Calm,-,N/A,,Clear,0,2012-12-26 22:52:00
6:52 PM,15.1,10.0,80,30.26,10.0,Calm,Calm,-,N/A,,Clear,0,2012-12-26 23:52:00
7:52 PM,17.1,12.0,81,30.24,10.0,Calm,Calm,-,N/A,,Clear,0,2012-12-27 00:52:00
8:52 PM,18.0,12.0,78,30.22,10.0,Calm,Calm,-,N/A,,Clear,0,2012-12-27 01:52:00
9:52 PM,19.0,12.9,77,30.19,10.0,Calm,Calm,-,N/A,,Partly Cloudy,0,2012-12-27 02:52:00
10:52 PM,19.9,14.0,78,30.14,10.0,Calm,Calm,-,N/A,,Overcast,0,2012-12-27 03:52:00
11:52 PM,21.9,12.9,68,30.09,10.0,Calm,Calm,-,N/A,,Overcast,0,2012-12-27 04:52:00